User: anonymous
Location: Hepcat Sky Observatory
(29.9800°N, 95.6500°W)
Time: 11:16:10
(UTC-05:00)
Language:

Cosmos 1602 Rocket - Orbit

View from above orbital plane
View from above orbital plane
View from above satellite
View from above satellite

Ground track
Ground track

The orbit data is extracted from the following two-line orbital elements,

1 15332U 84105B   14273.77767808  .00000388  00000-0  44909-4 0  7738
2 15332 082.5374 033.6017 0021945 039.4206 121.8049 14.82796683619780
Epoch (UTC): 30 September 2014 18:39:51
Eccentricity: 0.0021945
inclination: 82.5374°
perigee height: 605 km
apogee height: 636 km
right ascension of ascending node: 33.6017°
argument of perigee: 39.4206°
revolutions per day: 14.82796683
mean anomaly at epoch: 121.8049°
orbit number at epoch: 61978

The dashed part of the orbit path shows where the satellite is in the earth's shadow,  

DLR